CAPE
505 494 539 556 572 444 351 215 127 86 84 37 0 0 0 3 0 16 206 473 691 796 922 1000 1050 1061 1170 1485 1552 1604 1689 1739 1770 1902 1868 1902 1954 1982 2015 1972 2031 2056 2092 2147 2132 2294 2289 2243 2254 2204 2111 2139 2273 2224 2249 2352 2305 2291 2313 2277 2190 2101 2106 2137 1990 2032 2029 1970 2162 2281 2300 2415 2623 2495 2955 2907 2916 2762 2571 2879 3027 3101 3023 3222 3271
538 514 519 531 525 492 400 243 134 62 49 44 23 0 0 0 0 0 8 159 464 677 798 884 932 966 976 1155 1425 1507 1555 1610 1608 1795 1894 1854 1856 1887 1911 1931 1939 1954 1959 2052 2031 2058 2230 2196 2205 2209 2157 2078 2020 2111 2342 2344 2400 2414 2270 2287 2248 2246 2258 2230 2214 2147 2136 2168 2283 2284 2352 2436 2933 2529 2768 2830 3080 2816 2874 2968 3067 3229 3301 3382 3472
555 529 536 562 580 494 440 326 162 50 36 36 26 0 0 0 0 0 0 9 228 488 636 749 843 868 895 952 1127 1327 1413 1502 1538 1660 1826 1873 1889 1872 1891 1894 1951 2005 1930 2003 1969 1927 1939 2073 2149 2063 1999 2018 2040 2038 2083 2299 2365 2530 2459 2349 2354 2319 2281 2296 2293 2274 2268 2289 2196 2302 2437 2442 2623 3045 2747 2666 2746 2473 2720 3258 3206 3091 3220 3146 3426
573 573 584 591 615 553 432 350 184 72 27 33 38 13 0 0 0 0 0 1 58 329 481 566 696 728 801 864 897 1080 1234 1342 1428 1487 1676 1802 1847 1897 1953 1931 1948 2013 2076 2081 1997 1942 1966 2000 2026 2018 2018 2131 2144 2133 2028 1996 2288 2488 2472 2310 2350 2354 2314 2241 2328 2319 2339 2330 2355 2305 2603 2529 2964 2526 2525 2574 2428 2912 3029 3169 3126 3243 3203 3200 3386
582 596 605 621 648 624 578 346 221 114 37 15 20 18 0 0 0 0 0 0 10 128 408 494 530 584 664 753 830 909 1046 1165 1266 1352 1494 1640 1740 1782 1838 1916 1980 2026 2066 2078 2257 2079 2036 2045 2107 2002 1995 2116 2198 2129 2174 2110 2056 2118 2308 2331 2387 2394 2288 2295 2352 2312 2326 2393 2573 2310 2212 2354 2416 2470 2399 2785 3088 2941 2876 3180 3079 3001 3068 3124 3319
608 627 622 650 664 661 623 566 595 576 536 18 3 3 4 0 0 0 0 0 0 22 179 404 475 460 518 598 687 838 960 1032 1127 1254 1359 1504 1620 1704 1763 1839 1893 1987 2027 2042 2137 2252 2181 2152 2104 2057 2047 2100 2252 2240 2213 2234 2088 2010 2098 2170 2159 2153 2304 2327 2348 2393 2264 2501 2477 2558 2574 2691 2901 2732 2374 2718 3163 3286 3336 3013 2787 2620 2738 3338 3222
644 638 652 664 670 674 631 588 618 636 612 586 480 2 0 0 0 0 0 0 0 0 6 160 423 424 385 401 453 583 747 926 1054 1134 1225 1350 1538 1696 1752 1788 1865 1909 1971 1998 2014 2051 2143 2175 2191 2091 2091 2127 2156 2212 2247 2207 2195 2250 2248 2250 2117 2055 2142 2229 2210 2268 2379 2453 2434 2441 2543 2431 2282 2660 2621 2338 2775 2813 3053 3178 3211 2690 2738 2876 3337
660 664 659 664 684 683 649 580 617 653 691 692 685 604 264 0 0 0 0 0 0 0 0 0 51 298 324 270 288 322 363 558 783 960 1085 1233 1380 1559 1716 1839 1854 1875 1908 1946 1944 1992 2047 2083 2111 2139 2129 2171 2146 2206 2135 2269 2188 2231 2274 2202 2208 2136 2214 2226 2082 2106 2222 2197 2252 2398 2367 2301 2413 2196 2101 2172 2762 2594 2384 2820 3114 3244 3161 2808 2793
696 690 680 688 684 676 647 590 604 637 680 734 798 810 748 634 0 0 0 0 0 0 0 0 0 4 69 154 184 196 193 218 360 611 807 1011 1202 1353 1568 1755 1858 1918 1936 1880 1857 1890 1968 2009 2062 2130 2252 2442 2191 2109 2044 2008 2116 2233 2223 2086 2240 2241 2349 2235 2270 2263 2263 2130 2272 2245 2125 2318 2455 2498 2464 2467 2692 2855 2615 2434 2894 2746 2363 2468 3007
715 705 711 687 677 661 631 618 623 644 663 708 795 850 868 828 721 358 0 0 0 15 5 0 0 0 0 2 29 76 168 198 266 54 294 789 995 1144 1320 1504 1683 1825 1955 1924 1859 1767 1796 1848 1994 2365 2581 2682 2334 2166 2116 2102 2148 2067 2221 2054 2148 2249 2228 2260 2324 2265 2296 2315 2348 2356 2376 2418 2449 2530 2414 2337 2448 2276 2324 2444 2589 2500 2266 2616 2475
710 705 694 680 662 654 646 657 662 654 686 707 733 786 868 894 916 821 654 0 0 1 14 8 2 0 0 0 0 1 36 108 30 0 0 17 647 991 1108 1265 1430 1669 1779 1845 1833 1866 1786 1759 1850 2104 2726 3117 3014 2464 2248 2208 2207 2208 2194 2166 2209 2184 2260 2246 2296 2288 2302 2343 2417 2349 2312 2385 2429 2467 2307 2294 2244 2681 2993 2705 2717 2367 2589 2342 2422
702 681 678 652 670 677 683 703 692 688 697 707 734 783 819 887 930 934 929 885 730 248 0 0 1 4 4 3 4 3 1 0 0 0 0 0 108 774 981 1059 1217 1388 1584 1681 1742 1785 1810 1714 1704 1719 1976 2341 2760 2995 2638 2425 2290 2202 2164 2171 2182 2194 2211 2276 2395 2413 2192 2234 2387 2421 2360 2418 2449 2442 2286 2204 2703 2520 2410 2327 2382 2673 2609 2362 2376
742 715 707 717 742 750 742 747 731 732 738 743 768 785 777 867 924 961 964 962 964 948 844 620 41 0 0 3 9 24 24 0 0 0 0 0 0 122 682 872 1071 1181 1328 1437 1552 1622 1690 1733 1733 1745 1651 2187 2500 2574 2638 2695 2330 2390 2380 2326 2293 2287 2286 2270 2279 2320 2569 2321 2328 2356 2408 2319 2353 2408 2364 2475 2196 2601 2145 2109 2078 1958 2279 2246 2411
1150 1089 1068 1012 978 948 814 834 822 829 830 808 764 817 870 906 946 988 1000 1013 1006 1018 1036 1031 956 792 418 0 0 0 2 0 0 0 0 0 0 1 275 622 826 914 1047 1219 1380 1516 1554 1577 1625 1688 1741 1893 2299 2556 2462 2375 2435 2249 2109 2158 2237 2290 2322 2360 2354 2305 2290 2268 2351 2341 2330 2295 2214 2261 2482 2254 2243 2678 2185 2331 1988 2031 1896 2083 2393
1286 1242 1208 1121 1004 877 868 851 901 904 874 869 930 969 968 980 1013 1034 1044 1058 1072 1084 1062 1144 1198 1210 1162 1064 915 770 128 106 0 0 0 0 0 0 16 264 518 694 840 976 1134 1283 1407 1555 1568 1604 1628 1698 1750 2048 2218 2315 2306 2298 2255 2106 1938 1958 2000 2064 2131 2187 2212 2181 2144 2076 2192 2431 2350 2411 2420 2395 2358 2648 2356 2472 2250 2123 1993 1981 2457
1106 917 1144 1089 1023 969 924 814 864 983 997 919 991 1066 1073 1078 1098 1102 1104 1132 1154 1169 1163 1227 1321 1431 1492 1475 1380 1223 1129 990 813 473 0 0 0 0 0 90 292 490 659 810 973 1163 1314 1426 1514 1582 1619 1637 1574 1386 1643 1960 2058 2165 2192 2152 2140 1999 1875 1870 1870 1862 1846 1826 1784 1728 1745 1908 1799 2150 2224 2231 2120 1978 1914 1974 1912 1792 1727 2041 2486
1138 1105 1054 836 1083 1051 1011 943 968 1126 1176 1139 1056 1118 1137 1162 1178 1174 1190 1216 1250 1257 1277 1364 1424 1472 1560 1708 1733 1636 1444 1239 1050 849 544 0 0 0 0 55 194 369 527 706 891 1032 1184 1326 1450 1528 1672 1642 1496 1412 1440 1481 1991 1879 1927 1945 1896 1788 1843 1813 1659 1663 1662 1666 1659 1641 1640 1660 1720 1739 1625 1452 1563 1656 1738 1659 1928 1722 1834 2114 2433
948 1013 1036 1121 1018 1242 1178 1260 1345 1424 1405 1381 1361 1244 1219 1242 1265 1256 1297 1309 1336 1360 1351 1430 1513 1591 1667 1737 1896 2009 1970 1753 1428 1130 885 648 131 0 0 18 130 275 438 625 811 989 1110 1637 1743 1448 1516 1592 1404 1404 1444 1471 1738 1941 1919 1895 1873 1832 1852 1737 1650 1657 1660 1638 1606 1601 1599 1622 1611 1582 1470 1359 1283 1280 1741 1921 2132 1900 2117 2428 2716
1051 1035 1087 765 1020 984 1550 1551 1552 1578 1621 1605 1568 1564 1562 1568 1250 1290 1320 1365 1408 1449 1507 1558 1638 1713 1771 1824 1886 2051 2155 2165 2015 1713 1280 937 657 204 0 9 89 206 337 509 710 902 1022 1528 1804 1764 1479 1433 1265 1311 1379 1414 1482 1746 1920 1895 1917 1946 1949 1914 1785 1702 1681 1549 1509 1477 1470 1463 1452 1399 1352 1333 1357 1444 1665 1946 2295 2383 2531 2822 2908
1266 1180 1396 1276 1076 1039 1506 1919 1868 1755 1778 1769 1768 1780 1818 1819 1819 1588 1560 1534 1583 1592 1689 1724 1767 1832 1893 1944 1973 2047 2166 2241 2233 2199 1898 1428 1011 690 445 55 109 173 270 415 596 775 989 1088 1190 1210 1439 1372 1296 1288 1305 1346 1378 1625 1727 1764 1845 1958 1965 1957 1792 1656 1778 1796 1813 1759 1670 1822 1786 1463 1345 1489 1705 2002 2348 2591 2819 2924 2903 2853 2686
1008 1036 1388 1701 1347 1035 1057 1482 2022 1980 1795 1833 1823 1789 1714 1757 1868 1729 1826 1739 1734 1778 1844 1891 1917 1965 1996 2022 2044 2087 2165 2244 2257 2267 2306 2080 1598 1086 732 536 460 405 363 366 580 691 845 1020 1138 999 1049 1238 1346 1370 1357 1364 1397 1442 1613 1634 1691 1669 1717 1798 1639 2088 2018 1756 1586 1759 1996 2021 2162 1902 1615 1792 2068 2443 2743 2890 2910 2861 2757 2646 2690
790 831 1235 1413 1713 1450 1205 1088 1084 1366 1694 1844 1873 1843 1907 2086 1941 1972 1968 1953 1972 1982 1999 2026 2044 2051 2076 2102 2090 2117 2180 2239 2258 2258 2310 2378 2223 1790 1290 920 692 588 533 502 567 650 774 894 1022 994 912 988 1108 1229 1342 1381 1415 1444 1469 1502 1536 1559 1578 1579 1578 1557 1587 1934 2113 2129 2128 2215 2375 2300 1845 1954 2043 2378 2524 2615 2717 2742 2733 2786 2882
352 596 842 861 1539 1532 1707 1741 1440 1360 1389 1363 1577 1651 1704 1953 2062 2094 2156 2208 2185 2181 2191 2160 2154 2145 2138 2121 2095 2112 2164 2208 2232 2238 2263 2332 2399 2269 1905 1461 1079 834 723 678 655 633 772 892 990 818 859 937 1019 1112 1206 1303 1353 1418 1487 1527 1553 1561 1567 1580 1602 1605 1583 1553 1600 1642 1853 2205 2284 2341 2208 2192 2210 2231 2372 2516 2570 2717 2811 2887 2856
400 394 497 1247 1203 1393 1577 1863 1676 1950 1836 1606 1387 1314 1638 1850 2088 2275 2252 2291 2301 2303 2234 2233 2193 2158 2083 2092 2079 2106 2125 2155 2171 2176 2201 2247 2321 2371 2238 1888 1478 1156 935 820 747 706 812 927 972 832 854 915 1012 1105 1196 1283 1363 1457 1530 1560 1573 1601 1635 1673 1694 1703 1674 1652 1622 1644 1757 1940 2179 2347 2383 2368 2336 2300 2308 2475 2735 2787 2834 2861 2785
203 141 276 334 628 1358 1512 1685 1778 1403 1539 1910 2016 2054 1607 1292 1668 1981 2111 2082 2178 2177 2200 2158 2136 2089 2065 2030 2026 2036 2066 2089 2098 2075 2090 2143 2239 2304 2299 2134 1799 1435 1139 950 828 756 732 659 740 800 872 943 1036 1122 1216 1326 1430 1523 1577 1614 1656 1692 1738 1771 1782 1776 1786 1800 1829 1872 1965 2110 2210 2204 2184 2218 2205 2294 2430 2664 2874 2871 2881 2844 2774
42 42 9 60 158 204 308 461 1162 1407 1335 1292 1509 1817 2138 2401 2084 1822 1916 2062 2040 2022 2036 2025 1998 1978 1944 1946 1934 1953 1995 2048 2064 2016 2018 2074 2163 2231 2223 2165 2016 1745 1418 1114 922 806 739 692 740 818 896 978 1066 1184 1300 1409 1498 1565 1612 1662 1729 1815 1875 1912 1946 2024 2064 2076 2026 1974 1972 1993 2094 2103 2108 2038 2034 2206 2440 2756 2998 3003 2931 2905 2897
3 3 3 3 2 39 149 322 643 1006 1409 1560 1607 1658 1797 2141 2279 2087 1977 2387 1919 1908 1918 1899 1894 1881 1876 1882 1857 1888 1954 1986 1990 1965 1953 1981 2049 2119 2086 2060 2096 1969 1758 1448 1139 930 830 809 813 848 951 1051 1144 1255 1356 1459 1555 1629 1695 1770 1848 1921 2002 2048 2096 2150 2185 2197 2168 2066 1989 1945 2017 1947 1977 1934 2029 2227 2483 2825 2987 3015 2999 3056 3057
2 1 1 1 1 1 50 234 543 878 1291 1593 1742 1762 1959 2199 2240 2290 2531 2622 2419 2153 1910 1830 1842 1837 1829 1814 1806 1835 1890 1912 1895 1880 1893 1941 1996 2010 1985 2032 2128 2114 1992 1783 1510 1164 978 915 915 937 973 1022 1136 1254 1386 1503 1606 1685 1753 1804 1889 1956 2027 2099 2139 2168 2192 2212 2175 2114 2077 2061 2068 2166 2155 2221 2275 2322 2522 2742 2852 2972 3059 3098 2903
1 1 1 0 1 2 63 256 582 1070 1457 1616 1656 1715 1829 2144 2724 2926 3013 2832 2602 2342 2107 1919 1870 1823 1796 1768 1736 1746 1759 1784 1792 1781 1801 1820 1810 1800 1825 2031 2140 2106 2072 2043 1959 1641 1272 1045 1029 1038 1060 1099 1135 1189 1306 1430 1547 1618 1675 1755 1857 1932 2001 2033 2075 2124 2167 2177 2145 2122 2153 2126 2137 2130 2215 2389 2498 2531 2547 2606 2815 2932 3071 2995 2787
1 1 1 0 1 3 69 218 565 831 753 810 1043 1327 1555 2118 2614 2958 3127 3119 2865 2565 2256 2118 2013 1910 1827 1797 1718 1758 1766 1657 1614 1645 1709 1732 1738 1683 1907 2100 2184 2234 2184 2117 2033 1911 1680 1378 1184 1152 1165 1189 1225 1250 1294 1357 1440 1500 1559 1649 1769 1848 1888 1899 1937 2024 2075 2116 2123 2124 2152 2175 2211 2209 2306 2582 2704 2678 2655 2635 2812 2932 2948 2850 2725
2 2 2 2 3 2 12 78 292 559 757 827 1031 1333 1692 2105 2547 2950 3144 3258 3140 2902 2558 2312 2114 1944 1814 1925 1770 1747 1720 1650 1603 1616 1648 1659 1587 1774 1968 2122 2251 2361 2337 2233 2165 2067 1842 1606 1428 1274 1296 1314 1337 1366 1375 1365 1364 1400 1458 1540 1599 1617 1630 1688 1774 1861 1948 2006 2054 2105 2153 2182 2269 2280 2366 2698 2917 2904 2936 2915 2675 2798 2778 2750 2709
3 3 3 1 1 3 11 119 416 657 750 811 987 1248 1688 2051 2488 2908 3106 3204 3186 2969 2676 2390 2129 1907 1767 1687 1784 1776 1761 1751 1737 1746 1761 1751 1625 1798 2008 2219 2394 2456 2459 2318 2252 2168 2014 1850 1659 1469 1351 1360 1397 1411 1410 1389 1366 1360 1378 1355 1373 1422 1544 1666 1754 1828 1914 1983 2066 2108 2168 2261 2320 2321 2386 2689 2959 2954 2574 2000 2020 2302 2352 2185 2053
4 4 4 10 13 19 70 201 350 458 644 742 778 833 1262 1864 2386 2854 3149 3074 3010 2840 2679 2334 2009 1801 1723 1767 1800 1808 1807 1752 1723 1746 1794 1819 1701 1804 1982 2232 2400 2530 2507 2405 2326 2223 2136 2008 1845 1666 1499 1462 1465 1447 1432 1411 1408 1430 1480 1517 1524 1544 1604 1682 1742 1856 1954 1980 2038 2145 2201 2265 2250 2228 2273 2479 2686 2992 2744 2409 2165 1945 1946 1922 1963
8 14 17 17 21 20 44 138 221 301 421 576 664 692 858 1418 2140 2613 2902 3035 2942 2890 2738 2294 2005 1836 1680 1758 1823 1839 1852 1851 1830 1851 1860 1891 1906 1887 1855 2149 2376 2596 2585 2516 2427 2399 2377 2285 2073 1850 1682 1605 1619 1624 1633 1637 1661 1727 1763 1794 1781 1768 1779 1828 1895 1998 2026 1946 1953 2028 2094 2107 2032 2030 2202 2393 2504 2421 2338 2315 2232 2222 2349 2441 2439
9 12 11 12 14 14 15 17 21 40 136 292 515 595 738 993 1638 2248 2684 2838 2840 2842 2831 2513 2100 1880 1793 1741 1776 1848 1895 1904 1916 1932 1972 2010 2042 2069 2162 2300 2456 2592 2633 2600 2489 2431 2402 2332 2228 2058 1887 1747 1791 1797 1837 1860 1900 1943 1986 2034 2050 2021 2038 2092 2143 2177 2160 2035 2013 2134 2129 2058 2004 2066 2111 2177 2188 2195 2177 2086 2078 2086 2109 2022 1878
6 10 7 6 8 11 14 20 19 12 6 213 501 671 759 946 1351 1967 2370 2643 2809 2698 2550 2579 2574 2379 2196 2087 1946 1881 1936 1967 1986 2008 2058 2106 2160 2192 2286 2418 2518 2641 2773 2836 2757 2721 2679 2596 2480 2287 2082 1941 1952 2011 2029 2052 2081 2113 2148 2201 2252 2269 2295 2393 2418 2300 2181 2288 2246 2146 2131 2139 2134 2063 2022 2005 2062 2112 2031 1961 2116 2190 2091 1923 1674
4 5 7 8 10 11 10 11 12 13 8 6 179 544 650 775 1065 1647 2194 2428 2641 2791 2768 2559 2432 2441 2376 2286 2230 2106 1998 2061 2120 2171 2210 2241 2287 2354 2435 2534 2624 2731 2860 2960 2937 2875 2803 2752 2670 2500 2262 2101 2022 2059 2142 2185 2217 2256 2286 2314 2368 2359 2417 2440 2457 2493 2501 2469 2370 2303 2316 2363 2318 2229 2126 2096 2041 1976 1849 1940 2218 2198 1956 1783 1636
2 6 8 6 6 8 8 7 8 7 9 8 9 341 524 637 820 1178 1728 2285 2527 2596 2769 2875 2700 2533 2471 2480 2402 2314 2213 2095 2171 2294 2384 2420 2464 2499 2571 2666 2753 2825 2922 3001 3062 3044 3002 2935 2872 2767 2571 2388 2268 2216 2193 2183 2166 2289 2345 2368 2376 2370 2376 2421 2484 2546 2586 2602 2513 2466 2445 2427 2404 2294 2297 2271 2150 1958 1820 1979 2120 2054 1850 1621 1403
2 4 4 5 4 8 7 6 8 8 8 10 11 21 336 533 647 855 1173 1669 1926 2060 2294 2527 2769 2798 2725 2629 2544 2478 2410 2346 2278 2249 2374 2464 2541 2611 2647 2717 2775 2851 2932 3038 3104 3140 3205 3231 3140 2973 2839 2765 2614 2550 2494 2450 2414 2335 2319 2358 2351 2330 2333 2370 2465 2586 2614 2598 2558 2570 2563 2381 2266 2222 2323 2366 2281 2125 1939 1981 2071 1933 1602 1184 1056
2 2 3 3 6 8 22 169 112 11 10 11 9 22 60 360 527 640 850 1165 1474 1635 1767 1996 2367 2633 2705 2648 2652 2650 2603 2572 2541 2504 2424 2471 2600 2651 2698 2774 2837 2845 3019 3130 3194 3257 3301 3325 3270 3104 2992 2925 2878 2788 2737 2681 2608 2508 2419 2354 2332 2304 2303 2332 2404 2513 2601 2585 2580 2614 2527 2403 2290 2342 2383 2324 2183 1978 1828 1783 1774 1504 1554 1404 1140
2 3 5 4 119 136 229 241 220 199 187 5 5 5 11 210 433 583 668 864 1114 1322 1384 1525 1804 2193 2435 2563 2588 2680 2751 2729 2682 2674 2664 2663 2653 2686 2774 2812 2951 3063 3144 3190 3222 3233 3288 3323 3261 3115 3002 2997 3006 2930 2764 2669 2654 2612 2563 2513 2512 2515 2476 2346 2236 2294 2470 2508 2466 2429 2369 2316 2359 2374 2096 1912 1854 1766 1773 1781 1761 1628 1380 1232 1057
2 2 4 5 6 6 187 220 230 236 234 217 204 4 259 302 357 494 613 758 946 1106 1175 1221 1266 1580 2052 2312 2469 2652 2829 2902 2877 2861 2909 2932 2971 3095 3095 3080 3155 3230 3326 3372 3424 3511 3608 3631 3532 3341 3107 3043 2965 2902 2802 2723 2560 2636 2716 2686 2659 2643 2520 2396 2325 2327 2416 2354 2208 2119 2158 2262 2367 2264 2029 1934 1778 1656 1699 1733 1526 1432 1296 1002 949
4 3 4 7 5 4 94 188 217 187 201 208 252 280 285 353 428 519 606 730 865 949 1012 1112 1222 1212 1332 1669 2094 2445 2693 2850 2850 2855 2954 3063 3123 3187 3220 3242 3213 3239 3412 3545 3585 3646 3682 3667 3662 3669 3432 3159 2971 2868 2857 2913 2762 2324 2489 2458 2419 2468 2413 2216 2135 2217 2162 1970 1921 1982 2106 2162 2144 2094 1977 1942 1940 1754 1642 1610 1572 1439 1147 980 883
3 4 4 5 5 25 4 206 151 249 246 244 264 280 324 403 466 574 653 688 771 865 936 1027 1084 1091 1135 1220 1434 1852 2259 2523 2647 2704 2792 2992 3134 3275 3277 3209 3201 3342 3496 3540 3528 3578 3638 3530 3491 3516 3463 3210 3023 2790 2705 2718 2682 2429 1897 1762 1927 2029 1842 1873 2029 1885 1734 1768 1940 2046 2003 1943 1887 1802 1745 1757 1699 1404 1318 1110 1329 1237 1136 1121 934
2 3 3 2 4 3 3 220 231 266 283 309 325 354 375 404 457 576 662 670 710 747 776 901 1007 1066 1138 1251 1370 1544 1795 2065 2286 2481 2695 2900 3104 3236 3256 3168 3116 3266 3279 3184 3065 3095 3380 2970 2819 2986 3071 2982 2690 2524 2411 2338 2232 2076 1721 1361 1744 1744 1506 1777 1856 1700 1654 1729 1797 1744 1714 1675 1720 1765 1714 1601 1463 1382 1296 1111 1047 1098 1090 914 643
2 2 3 3 3 3 1 168 213 303 331 356 363 378 422 461 480 487 558 664 695 672 757 877 960 997 1093 1165 1247 1372 1572 1741 2009 2261 2533 2793 3045 3188 3176 3077 2926 2768 2727 2678 2573 2543 2817 2617 2535 2618 2708 2598 2449 2322 2104 1806 1613 1750 1901 1664 1574 1379 1467 1560 1621 1657 1679 1617 1623 1682 1720 1751 1714 1604 1428 1343 1319 1266 1218 1135 1046 882 784 671 434
1 2 3 3 3 2 1 2 186 244 330 394 451 503 546 569 583 569 572 622 704 719 722 815 880 959 1042 1168 1234 1309 1365 1499 1747 1992 2244 2522 2752 2892 2967 2830 2644 2410 2036 2150 2109 2147 2621 2616 2099 2166 2296 2058 1943 1642 1491 1434 1460 1602 1314 1084 1365 1305 1274 1422 1549 1512 1327 1377 1309 1362 1420 1453 1296 1135 938 780 741 877 979 985 936 768 619 435 301
1 2 3 4 2 3 2 1 2 91 280 380 452 517 572 611 646 631 642 642 648 661 728 834 884 910 998 1074 1190 1283 1398 1484 1586 1707 1942 2210 2401 2560 2596 2638 2512 2332 2149 1941 1829 1921 2172 1975 1743 1843 2069 1738 1378 1273 1360 1522 1405 971 580 500 894 1064 1166 1115 1013 1058 936 770 702 806 977 976 906 858 939 887 922 868 722 716 684 611 391 264 0
3 2 3 3 3 3 2 2 2 2 5 293 438 509 570 626 660 658 631 601 585 593 631 720 825 879 978 1027 1111 1237 1348 1544 1557 1547 1635 1805 2020 2193 2316 2243 1891 1852 2000 2038 1659 1617 1682 1534 1314 1374 1358 1013 819 1114 1243 832 733 637 555 593 646 732 848 682 728 794 870 814 686 731 625 595 638 696 703 753 813 799 595 342 0 0 0 12 0
4 3 2 4 3 3 2 1 2 2 3 4 249 465 564 590 623 628 595 565 562 569 747 784 727 748 835 890 947 1051 1161 1260 1425 1489 1583 1635 1608 1642 1743 1173 1118 1463 1654 1634 1074 1190 1273 1279 1356 1362 1153 822 814 1034 837 574 453 347 284 266 298 302 342 379 443 592 647 674 714 694 642 647 632 602 577 529 478 377 0 0 0 0 0 1 12
4 4 3 4 2 5 4 22 24 4 5 5 124 175 428 572 628 619 611 558 493 472 527 732 859 900 876 842 893 906 868 949 1029 1071 1058 1054 980 977 978 1014 1023 1077 1156 1083 1058 1191 1210 1168 794 738 868 999 788 710 613 561 340 222 108 53 14 99 42 0 0 13 38 320 399 434 389 344 281 169 13 0 0 2 4 0 19 32 15 13 6
Wind_Speed
17 19 20 19 18 16 14 14 12 nan nan nan nan nan nan nan nan nan 12 10 10 9 8 7 7 7 8 8 7 7 8 9 9 9 8 7 7 7 6 5 5 6 6 6 5 5 6 8 9 8 7 9 10 12 13 15 15 15 15 13 12 11 10 9 8 10 8 7 7 6 8 8 7 6 6 7 7 5 4 1 1 3 6 8 9
17 19 21 21 18 18 17 16 15 nan nan nan nan nan nan nan nan nan nan 9 11 10 8 9 9 8 9 8 7 8 9 9 10 10 9 8 8 8 7 6 5 6 5 6 4 3 3 5 8 8 5 7 9 10 11 13 14 15 15 14 12 11 11 10 8 9 10 9 7 8 7 9 5 7 6 6 6 5 5 4 3 4 5 6 8
18 20 21 21 19 20 19 18 17 nan nan nan nan nan nan nan nan nan nan nan 12 10 10 9 9 10 9 9 8 8 9 10 11 11 10 9 9 9 8 6 5 5 5 5 4 2 3 4 6 5 4 5 5 8 10 11 13 13 13 15 13 13 13 10 12 10 9 10 11 9 9 10 8 6 6 4 2 4 4 5 5 4 5 6 8
20 20 20 21 21 22 20 20 19 nan nan nan nan nan nan nan nan nan nan nan nan 12 11 10 11 11 10 10 9 9 10 11 12 12 12 11 10 9 9 8 7 6 5 5 3 2 3 3 4 2 2 4 4 5 7 9 10 11 12 13 13 12 13 13 11 10 11 11 11 10 11 10 8 9 8 5 4 5 7 6 6 5 4 6 8
18 19 21 23 24 23 22 22 20 17 nan nan nan nan nan nan nan nan nan nan nan 12 12 11 11 11 12 11 11 10 10 12 12 13 13 14 13 12 10 9 8 7 6 5 4 1 2 3 2 2 2 1 2 2 3 4 7 9 10 12 12 12 13 13 12 13 12 10 11 13 13 13 11 10 11 9 7 6 8 9 9 8 6 6 8
17 20 23 23 23 23 23 23 20 19 19 nan nan nan nan nan nan nan nan nan nan nan 11 12 10 10 12 12 12 11 11 12 12 12 14 15 14 13 12 11 10 9 8 6 4 2 1 2 2 2 3 3 1 1 2 1 4 5 6 8 10 12 12 13 14 13 13 12 12 12 14 13 14 13 12 13 9 7 9 13 11 11 10 8 9
18 20 22 22 22 22 23 21 21 22 21 20 22 nan nan nan nan nan nan nan nan nan nan 12 11 11 12 13 12 12 11 12 13 13 14 14 15 14 14 13 12 11 9 8 6 5 3 1 1 3 3 3 3 3 4 4 5 4 5 5 8 9 11 12 14 14 14 14 14 14 14 15 15 13 14 14 12 12 10 13 14 12 11 12 11
17 19 21 22 22 21 22 23 22 23 23 24 22 20 19 nan nan nan nan nan nan nan nan nan nan 14 13 13 13 14 13 13 13 13 13 14 15 15 15 15 14 13 12 10 8 7 5 4 3 3 3 3 4 4 6 5 6 5 7 8 8 9 9 11 12 13 14 15 15 15 16 16 16 15 15 14 13 15 16 16 14 13 11 12 13
16 18 20 21 22 23 25 26 26 25 25 25 23 21 20 19 nan nan nan nan nan nan nan nan nan nan nan 14 15 15 14 13 13 13 13 14 15 15 16 16 15 15 14 12 11 9 7 6 6 5 4 2 4 4 6 7 7 7 7 10 9 10 10 11 11 12 13 14 15 17 16 15 16 17 15 15 15 12 17 19 16 16 14 13 11
17 17 17 19 24 27 28 29 28 28 27 25 24 24 23 23 21 19 nan nan nan nan nan nan nan nan nan nan nan nan 13 13 11 nan 10 14 15 16 17 17 16 16 16 15 13 11 9 8 7 2 1 1 2 3 4 6 7 8 8 11 10 11 11 12 12 13 13 13 14 16 15 15 17 19 19 20 17 17 17 18 17 17 17 16 14
17 17 16 19 24 28 30 30 30 29 28 27 27 26 24 24 24 22 21 nan nan nan nan nan nan nan nan nan nan nan nan 14 nan nan nan nan 13 16 16 16 17 17 17 16 15 14 12 10 9 6 3 2 3 1 3 4 5 6 7 9 11 12 11 12 12 14 14 13 14 16 16 14 15 18 19 21 22 19 18 20 19 19 18 17 14
20 18 18 22 26 28 30 31 31 30 30 28 28 27 27 27 25 24 23 21 21 21 nan nan nan nan nan nan nan nan nan nan nan nan nan nan 10 14 17 18 18 18 17 16 16 16 15 14 12 12 10 8 9 8 6 4 5 5 6 6 7 9 10 11 11 14 15 14 14 15 16 16 16 18 19 22 22 23 22 23 23 20 19 19 19
21 20 20 22 23 25 28 30 30 30 30 30 30 31 29 27 25 24 22 22 24 23 20 18 nan nan nan nan nan nan nan nan nan nan nan nan nan 12 16 17 18 18 17 17 16 16 16 16 15 14 13 7 9 10 12 11 9 7 7 7 7 8 7 7 9 11 15 16 15 13 17 17 17 19 22 19 25 25 28 27 26 25 24 21 19
22 20 21 20 20 21 23 24 25 27 29 31 32 32 30 27 25 25 25 27 26 23 21 20 19 19 17 nan nan nan nan nan nan nan nan nan nan nan 16 16 17 16 15 17 18 17 16 15 15 15 16 16 15 15 15 14 16 16 15 14 13 10 9 8 8 9 11 15 15 14 14 19 17 18 21 24 24 24 26 25 29 28 28 25 24
26 24 22 20 19 17 18 19 21 25 28 31 33 31 29 28 27 27 27 27 26 24 23 23 21 20 18 17 17 16 16 10 nan nan nan nan nan nan nan 17 17 16 16 16 15 15 15 16 15 15 16 18 19 18 18 18 19 18 16 15 16 16 16 15 15 17 18 17 16 15 14 16 17 18 21 26 23 23 25 25 28 28 29 28 25
37 29 23 21 20 21 21 21 22 24 28 31 32 31 30 29 27 28 30 29 28 28 28 26 24 22 21 20 20 16 16 12 13 13 nan nan nan nan nan nan 17 16 16 16 17 17 17 16 15 16 16 17 17 17 18 21 21 18 17 17 18 18 18 16 16 17 18 19 19 17 17 17 17 18 21 24 24 24 25 27 29 29 29 27 24
49 47 39 32 28 26 24 23 22 23 26 28 30 30 30 29 30 33 32 30 29 28 27 27 26 26 24 24 21 19 18 16 16 15 15 nan nan nan nan nan 17 16 15 17 18 19 18 17 17 17 18 18 18 19 19 20 21 20 20 20 22 21 19 20 19 17 15 15 15 16 15 16 16 16 18 22 24 27 27 27 25 27 25 24 24
48 46 42 39 36 31 27 24 22 22 24 25 26 28 30 32 32 35 32 30 29 28 27 29 29 29 26 24 24 22 20 19 19 18 18 20 25 nan nan nan 17 16 15 17 19 20 19 16 18 18 18 19 20 21 22 23 22 22 22 23 23 23 22 24 26 23 18 15 14 13 14 14 14 14 17 22 25 28 26 23 25 27 23 24 22
50 48 45 41 36 33 32 27 23 21 22 22 24 27 30 31 32 34 33 32 30 30 30 30 28 29 29 26 23 22 23 22 22 21 21 24 28 26 nan nan nan 17 17 17 19 20 20 20 17 17 19 20 20 23 24 27 24 23 24 24 23 22 24 30 28 24 23 21 18 19 17 17 19 21 22 25 27 25 24 22 26 25 22 21 21
49 50 47 46 44 37 33 31 27 24 22 22 24 25 29 32 33 34 33 34 32 32 31 31 27 28 29 28 29 26 23 23 26 24 23 26 31 30 29 nan 22 19 19 20 20 21 21 22 21 19 19 20 22 24 26 28 25 25 27 25 23 22 27 31 29 26 22 21 19 19 17 18 23 24 25 27 26 25 24 23 23 23 22 22 23
48 46 44 44 43 45 45 37 30 28 27 27 30 29 29 30 31 32 30 32 31 30 29 28 26 25 26 27 26 26 25 23 25 26 25 28 32 33 30 27 24 24 23 23 23 23 24 24 25 24 23 22 23 25 27 28 26 26 26 23 23 22 26 30 27 25 23 22 21 21 20 21 23 25 26 27 26 25 24 22 22 23 24 24 23
46 43 40 39 39 37 42 47 45 38 33 32 31 27 26 28 27 27 30 31 28 26 26 25 24 24 24 24 23 22 23 21 24 26 27 29 33 33 30 27 26 27 26 24 25 25 25 27 27 27 27 26 26 27 28 29 28 29 25 22 20 21 24 28 31 30 27 26 25 24 22 23 23 25 26 26 26 26 24 22 22 23 24 24 26
46 41 39 41 41 37 39 41 38 39 41 37 30 26 26 25 24 24 26 26 26 24 23 24 23 22 22 23 22 21 23 24 22 24 27 29 32 31 27 24 27 28 26 24 25 25 28 29 29 29 30 29 29 29 30 30 33 32 26 24 22 21 24 30 30 30 28 26 25 22 21 24 25 25 26 27 27 27 25 23 23 22 23 23 24
45 40 40 41 41 40 38 36 36 36 36 35 35 33 30 28 27 27 26 24 24 23 23 24 23 21 20 20 20 21 22 24 25 23 24 28 29 29 26 22 25 26 24 23 25 27 28 30 31 30 31 31 31 31 31 34 35 32 30 27 24 25 29 30 31 31 28 26 26 24 23 24 26 26 26 27 27 28 26 25 25 25 25 25 25
49 45 42 42 41 40 38 37 36 37 37 36 35 35 34 33 31 29 27 24 22 20 21 24 23 21 20 19 19 20 22 24 24 25 24 27 29 28 26 24 22 23 22 22 24 27 27 27 29 31 31 31 31 31 32 34 33 33 34 31 31 34 30 30 29 31 28 25 26 25 24 25 26 24 25 27 29 30 29 27 27 26 25 24 24
nan nan nan nan 43 40 39 38 36 35 35 36 36 37 36 36 34 32 29 25 21 18 19 22 23 22 21 19 19 20 24 25 23 25 28 27 28 27 28 27 26 24 21 20 21 21 24 26 28 30 32 33 35 37 37 36 35 34 35 38 38 35 32 31 30 30 28 27 26 25 26 27 29 28 29 33 31 30 31 31 29 27 28 27 26
nan nan nan nan nan nan 41 42 42 41 40 40 39 38 36 36 34 33 29 22 20 18 19 21 23 23 22 22 21 24 26 25 25 25 29 32 33 33 32 30 28 27 25 24 24 27 28 31 33 35 37 36 34 33 34 38 41 40 40 42 40 37 34 32 30 30 26 25 26 27 26 28 30 33 33 33 31 30 32 33 30 28 30 30 29
nan nan nan nan nan nan nan 42 42 44 44 42 41 38 32 26 25 23 20 18 20 20 21 22 22 22 22 23 26 26 26 24 23 24 27 32 34 36 37 37 38 37 33 32 33 31 33 36 36 37 38 39 36 37 36 39 40 41 41 42 42 40 37 33 29 27 26 26 26 26 28 31 31 33 34 35 33 33 35 34 33 32 33 34 32
nan nan nan nan nan nan nan 45 45 44 44 43 42 40 37 33 27 22 19 22 23 25 25 23 21 22 23 23 24 24 23 20 19 23 27 30 32 36 38 35 37 36 32 33 37 37 37 36 34 34 34 35 36 34 36 38 39 39 39 40 40 40 40 39 34 31 27 27 25 26 26 30 30 34 37 37 36 37 38 36 35 36 37 36 34
nan nan nan nan nan nan nan 47 48 46 43 43 42 41 36 30 29 28 26 22 19 20 24 24 22 24 23 21 24 23 20 17 16 25 29 28 28 31 33 34 34 34 35 39 39 39 37 35 34 34 34 34 33 32 33 36 36 35 33 34 35 36 37 38 37 32 28 27 26 27 28 31 33 38 41 41 42 41 40 39 38 39 38 35 31
nan nan nan nan nan nan nan nan 46 45 43 43 44 43 44 40 31 23 21 24 25 23 23 20 20 23 25 24 25 20 16 18 23 32 30 28 29 30 32 35 36 38 49 50 40 36 36 35 34 34 33 33 32 32 33 34 32 30 30 31 32 33 35 36 35 34 31 29 28 29 32 35 36 41 43 43 42 41 40 38 40 36 30 24 20
nan nan nan nan nan nan nan 36 39 42 42 44 46 48 47 46 43 35 27 23 25 28 27 25 22 22 22 23 26 28 24 20 21 31 31 30 30 31 32 36 40 47 47 49 43 37 35 34 34 34 33 31 31 31 33 33 30 27 26 29 31 34 35 34 35 36 33 32 32 33 35 37 38 41 42 44 44 37 36 40 40 40 36 29 22
nan nan nan nan nan nan nan 38 37 38 39 41 46 49 49 48 46 44 40 35 28 26 29 30 27 25 25 23 24 26 27 28 25 28 32 31 31 32 34 38 46 48 53 46 40 40 39 37 35 34 33 30 30 31 32 32 30 27 27 30 34 34 33 32 36 36 34 34 36 35 37 39 40 42 45 46 39 30 31 33 36 41 39 33 27
nan nan nan nan nan nan nan 41 38 36 36 38 43 47 47 47 46 44 40 39 38 36 34 31 31 31 29 26 26 27 27 30 32 32 32 32 33 35 44 50 51 49 48 43 42 40 45 43 39 36 34 32 30 30 31 31 29 28 28 30 32 32 32 34 37 34 35 37 37 36 38 39 42 43 45 45 38 31 28 28 28 27 25 24 24
nan nan nan nan nan nan nan nan nan nan 36 37 42 45 45 46 46 44 40 37 35 34 33 32 31 32 31 32 30 28 29 32 34 34 35 35 42 55 59 54 50 43 39 39 42 42 45 47 43 38 37 36 33 32 31 31 31 31 30 30 31 33 34 35 35 36 37 38 37 37 39 40 42 43 43 42 39 32 28 28 25 24 23 23 24
nan nan nan nan nan nan nan nan nan nan nan 38 40 41 43 44 44 43 42 38 36 34 34 34 37 38 30 30 32 33 32 33 33 35 38 43 53 57 50 46 46 45 43 42 42 42 45 46 43 40 41 40 37 32 32 32 32 32 31 31 31 34 35 35 36 37 38 38 37 39 42 42 43 43 41 39 37 33 29 29 28 28 26 25 26
nan nan nan nan nan nan nan nan nan nan nan nan 39 39 41 42 42 43 43 42 38 37 36 39 45 47 46 40 36 37 39 39 39 42 46 48 50 48 44 47 46 46 45 45 45 45 46 44 43 41 43 43 39 34 32 33 33 32 31 31 32 34 35 36 36 37 39 38 38 41 44 44 42 40 38 36 32 29 29 30 31 33 31 29 33
nan nan nan nan nan nan nan nan nan nan nan nan nan 42 42 42 43 44 45 44 42 41 39 39 42 41 39 37 45 45 50 53 57 55 54 54 50 44 44 44 46 47 46 46 47 48 46 44 43 42 44 43 39 35 34 33 34 33 32 31 33 32 36 39 38 38 39 40 42 45 45 42 39 38 37 33 31 29 29 32 35 36 36 37 39
nan nan nan nan nan nan nan nan nan nan nan nan nan nan 44 44 45 46 46 46 45 44 42 42 42 40 37 42 52 53 56 49 47 45 48 48 48 47 47 46 46 45 46 48 50 49 47 45 43 43 44 43 40 38 36 35 36 35 34 34 33 34 37 37 38 39 40 43 47 48 45 42 40 38 36 35 33 30 31 34 35 40 40 35 37
nan nan nan nan nan nan nan 48 48 nan nan nan nan nan nan 46 45 46 47 47 46 47 47 45 43 41 41 50 54 54 50 48 46 47 49 51 49 48 47 46 46 46 49 51 51 49 47 45 46 47 46 43 41 40 40 40 40 37 38 37 34 34 36 37 38 40 42 49 52 50 45 41 39 38 35 31 27 31 37 40 42 42 41 40 38
nan nan nan nan 65 63 58 55 53 52 53 nan nan nan nan 50 48 47 46 46 48 49 49 49 47 47 51 52 55 54 51 50 50 50 50 51 52 51 50 49 50 52 54 54 53 51 49 49 49 48 48 46 44 44 44 46 45 42 39 39 38 37 38 39 39 42 48 53 55 54 50 47 42 35 27 26 31 34 36 38 42 44 45 43 43
nan nan nan nan nan nan 67 65 62 58 57 55 55 nan 52 51 50 49 48 49 50 51 52 52 53 58 61 59 58 55 54 53 54 53 54 57 59 58 59 59 58 57 59 57 58 58 57 56 56 55 52 51 49 47 48 50 51 47 42 41 39 38 38 39 43 49 54 56 55 53 51 50 45 35 30 30 32 34 36 38 41 42 40 40 44
nan nan nan nan nan nan nan 70 67 64 61 59 57 57 55 52 50 50 49 49 50 52 53 54 56 61 61 60 60 60 57 58 62 64 66 67 67 67 65 64 62 62 63 63 62 64 66 68 67 66 64 61 59 56 53 50 52 50 45 44 39 38 43 49 52 53 54 55 51 47 44 41 38 36 36 35 36 38 39 40 39 40 42 44 47
nan nan nan nan nan nan nan 73 70 68 65 62 61 61 61 59 57 53 49 46 48 51 53 54 60 64 64 63 64 63 62 66 68 70 72 72 72 72 71 69 68 68 68 68 67 68 72 74 73 71 68 65 63 62 60 57 56 57 55 53 51 50 49 50 52 52 53 53 48 42 39 39 39 38 38 39 39 41 41 40 40 41 43 45 47
nan nan nan nan nan nan nan 76 73 70 67 64 62 62 62 62 61 61 60 59 58 59 61 62 63 62 63 63 63 65 66 68 69 71 73 73 74 72 71 70 70 71 71 72 72 73 75 76 74 71 70 68 68 69 67 66 68 68 65 62 61 59 56 54 53 53 53 52 48 45 43 43 41 38 37 38 41 43 44 45 47 47 48 47 49
nan nan nan nan nan nan nan 81 77 73 70 67 64 63 63 62 62 62 61 61 60 62 63 63 64 64 63 62 61 61 61 63 67 69 70 71 71 70 69 68 68 68 69 71 73 76 77 77 77 77 76 74 74 73 72 72 71 72 72 69 65 60 56 53 50 50 47 45 43 44 45 43 40 38 40 41 42 46 49 50 49 49 51 52 52
nan nan nan nan nan nan nan nan 82 78 75 72 69 67 65 64 63 63 66 66 61 61 63 63 63 64 62 62 61 61 60 63 66 67 68 68 69 68 68 67 66 65 65 68 71 74 78 80 80 80 79 78 76 75 74 73 72 72 72 71 66 62 59 55 52 50 49 47 45 44 43 41 40 41 44 45 47 50 52 54 56 57 55 53 51
nan nan nan nan nan nan nan nan nan nan 83 80 75 71 67 64 62 63 64 66 63 60 60 62 62 63 63 62 62 62 62 63 65 66 66 65 65 66 68 70 68 65 64 66 67 71 75 79 80 80 80 78 77 74 73 74 74 72 71 69 66 65 71 72 65 62 58 55 52 49 45 44 42 42 45 48 51 55 59 61 61 57 53 51 nan
nan nan nan nan nan nan nan nan nan nan nan 81 80 77 72 68 65 65 66 68 66 63 61 61 62 62 64 65 64 65 65 67 67 65 65 65 66 67 68 69 68 66 64 65 66 69 71 75 79 80 80 79 76 75 76 79 79 74 71 69 71 77 80 79 73 70 68 63 60 56 52 49 49 49 52 54 56 59 62 62 nan nan nan nan nan
nan nan nan nan nan nan nan nan nan nan nan nan 84 81 78 74 70 68 68 69 69 66 65 63 62 62 64 64 65 65 65 67 66 67 68 68 68 68 67 67 67 67 68 66 66 68 69 71 74 77 80 82 81 77 77 77 76 72 69 70 74 77 79 83 84 82 76 72 70 64 58 55 54 54 54 56 58 58 nan nan nan nan nan nan nan
nan nan nan nan nan nan nan nan nan nan nan nan 89 87 85 82 79 75 74 73 73 72 69 68 66 66 65 67 67 67 67 68 68 70 70 70 70 71 70 68 69 71 71 70 67 68 70 71 72 75 78 81 82 79 75 73 70 68 73 nan nan nan nan nan nan nan nan 74 68 66 63 61 60 59 nan nan nan nan nan nan nan nan nan nan nan
Wind_Direction
217 212 213 207 205 201 200 206 214 nan nan nan nan nan nan nan nan nan 217 211 214 213 206 202 207 203 201 193 196 195 189 188 191 193 189 180 171 156 152 145 123 121 119 110 112 104 98 105 117 137 177 178 180 183 186 190 197 200 205 209 209 210 217 219 194 177 200 237 238 229 233 231 227 245 202 199 197 193 186 322 316 351 7 6 4
220 217 215 213 210 205 200 202 209 nan nan nan nan nan nan nan nan nan nan 219 223 214 204 201 203 208 203 192 192 196 195 192 200 201 194 189 181 177 162 151 139 130 129 114 113 115 96 97 109 119 151 169 184 187 192 196 202 205 210 216 218 219 222 228 216 217 188 225 230 260 252 268 237 267 235 203 194 211 203 212 276 318 345 352 353
226 221 218 217 215 211 206 205 208 nan nan nan nan nan nan nan nan nan nan nan 228 219 210 201 201 206 200 195 193 196 197 200 204 203 195 193 187 179 172 162 148 136 125 112 107 113 99 87 96 109 133 143 172 192 203 204 211 211 211 219 219 224 233 234 237 222 207 209 248 240 259 267 272 254 258 272 256 254 238 238 257 295 322 332 343
225 223 219 216 219 218 213 208 209 nan nan nan nan nan nan nan nan nan nan nan nan 228 218 209 207 206 200 196 197 195 199 203 208 202 198 198 192 184 182 172 161 145 129 123 115 103 84 90 89 77 104 115 140 181 206 215 220 223 222 226 227 229 237 245 247 243 236 225 242 255 254 256 274 284 284 286 278 263 268 262 273 282 298 315 329
225 223 221 220 220 219 217 215 211 209 nan nan nan nan nan nan nan nan nan nan nan 235 228 222 213 211 205 202 201 201 197 205 208 206 203 202 197 194 188 179 169 156 145 135 139 96 59 70 68 332 325 64 123 154 210 210 226 231 232 236 239 238 241 247 250 253 251 245 245 261 264 274 283 281 284 278 281 277 269 267 266 269 280 300 314
224 223 221 222 220 221 222 220 216 214 210 nan nan nan nan nan nan nan nan nan nan nan 237 231 222 213 210 208 207 203 203 205 206 205 206 207 204 200 197 189 177 169 164 158 158 167 97 56 36 317 325 346 15 325 276 272 252 245 240 244 248 249 248 248 250 251 253 253 255 250 267 273 279 287 286 288 281 266 267 268 266 271 277 279 290
227 223 222 220 219 220 223 224 222 219 216 213 213 nan nan nan nan nan nan nan nan nan nan 237 229 222 218 219 216 213 211 211 209 208 207 207 205 204 201 195 188 184 175 167 167 171 169 174 274 306 330 339 343 335 317 308 290 291 288 266 260 260 257 255 257 256 256 252 254 263 263 276 287 288 295 295 295 297 279 270 275 281 284 287 289
229 226 223 220 218 218 219 223 224 224 221 219 218 218 219 nan nan nan nan nan nan nan nan nan nan 229 225 225 222 223 222 218 216 213 212 213 212 208 206 203 197 191 184 180 177 174 179 186 209 252 295 308 326 321 314 315 299 301 295 290 281 276 270 267 265 264 262 261 259 255 264 268 278 290 293 292 292 289 290 284 276 278 277 284 293
233 230 225 221 218 217 218 219 221 223 224 223 221 220 221 221 nan nan nan nan nan nan nan nan nan nan nan 228 229 230 230 225 223 222 218 216 216 212 212 209 206 201 196 189 189 186 186 193 205 220 246 305 342 333 307 303 301 302 299 297 296 290 284 278 275 271 269 267 263 268 266 270 284 289 288 292 296 288 282 282 287 290 291 287 292
232 232 227 222 219 219 219 218 219 221 223 223 223 222 220 220 221 223 nan nan nan nan nan nan nan nan nan nan nan nan 230 229 233 nan 233 221 222 218 216 214 212 210 205 201 197 196 193 200 204 187 233 5 345 342 337 332 329 308 301 298 301 295 293 290 287 283 278 274 274 275 272 274 283 294 295 293 289 282 280 285 290 291 292 295 299
229 232 228 225 223 223 222 219 219 220 221 222 222 223 221 221 220 220 221 nan nan nan nan nan nan nan nan nan nan nan nan 232 nan nan nan nan 228 224 222 219 219 217 215 210 204 205 208 211 213 207 201 209 230 300 301 319 322 330 330 320 307 302 295 292 290 287 283 281 276 279 280 273 277 290 298 293 291 290 287 286 291 290 289 284 286
229 231 230 229 228 226 224 223 222 220 221 222 224 224 223 222 220 220 222 225 227 230 nan nan nan nan nan nan nan nan nan nan nan nan nan nan 246 231 228 225 225 225 222 218 213 211 213 218 220 226 232 239 241 241 257 284 303 309 316 322 326 326 317 303 293 283 285 281 278 280 278 275 272 280 288 292 296 293 291 289 292 293 292 294 298
238 239 239 242 241 238 234 232 229 226 224 224 225 226 226 224 222 221 222 224 228 231 232 233 nan nan nan nan nan nan nan nan nan nan nan nan nan 251 232 233 232 229 227 224 219 216 217 220 221 228 232 251 249 248 249 250 265 289 295 302 309 319 321 324 308 295 283 283 280 274 279 275 273 279 289 294 292 296 292 295 296 297 296 295 301
241 242 245 251 256 259 259 257 252 244 236 231 229 229 229 226 225 224 223 225 228 229 232 235 236 239 241 nan nan nan nan nan nan nan nan nan nan nan 240 242 239 236 234 232 229 227 226 223 222 223 235 244 248 252 252 251 253 258 264 270 274 284 303 319 321 317 300 286 283 277 274 280 281 277 283 290 293 296 296 300 299 299 300 302 299
235 235 242 247 246 245 249 257 263 262 257 248 240 235 233 229 228 226 226 228 229 229 230 233 235 238 240 241 239 236 234 243 nan nan nan nan nan nan nan 248 246 244 244 243 242 240 238 234 230 227 230 241 249 255 255 254 255 256 260 266 270 271 274 276 280 281 285 289 295 293 288 286 287 284 281 288 299 299 301 302 301 301 296 289 289
212 220 230 234 237 237 234 230 232 245 255 256 251 245 239 236 233 231 229 228 227 227 227 229 232 235 238 239 239 234 234 247 259 265 nan nan nan nan nan nan 255 253 252 254 253 251 250 247 241 239 237 241 249 265 262 256 256 258 260 260 261 263 266 274 282 282 282 286 293 301 304 310 310 300 294 293 294 293 289 284 285 289 293 293 293
213 205 202 209 220 226 230 233 237 240 244 251 253 251 246 240 235 234 233 230 230 230 230 232 232 233 237 240 240 235 233 244 258 264 267 nan nan nan nan nan 256 257 256 258 259 260 260 259 256 248 248 247 253 265 266 265 255 259 258 257 257 256 257 260 274 285 291 298 309 318 325 329 329 322 310 303 297 289 284 283 289 291 297 299 296
222 214 205 204 207 214 221 227 234 240 243 245 247 247 246 241 239 239 237 235 233 232 232 231 233 234 238 241 243 239 235 243 261 264 270 275 273 nan nan nan 260 259 255 258 261 263 267 279 272 262 256 254 260 269 272 269 259 259 258 256 256 257 255 257 260 269 289 303 309 316 319 320 321 320 311 307 303 294 291 291 288 289 299 299 299
222 218 211 206 207 208 211 218 226 234 241 244 243 243 242 241 240 240 239 236 233 232 233 232 233 235 238 241 248 247 239 243 261 267 273 276 274 264 nan nan nan 259 258 257 261 262 264 269 283 276 267 263 269 272 277 275 266 264 262 260 260 259 258 261 264 268 273 278 281 284 287 300 301 298 299 308 311 306 299 293 284 293 297 300 301
219 219 215 212 207 206 209 214 220 226 233 237 238 238 237 237 238 240 238 236 234 234 235 235 235 236 239 241 243 247 244 244 255 269 272 276 282 271 265 nan 266 265 260 258 257 260 262 263 269 281 284 279 277 279 281 287 276 269 267 267 267 263 260 263 270 271 271 278 278 280 282 282 285 289 290 293 298 303 304 299 297 298 298 296 297
222 223 221 216 209 205 206 209 216 221 226 232 233 228 231 232 235 238 236 236 236 236 237 238 238 237 241 243 245 247 248 249 253 269 272 277 282 280 269 273 272 268 264 260 257 258 261 262 262 275 284 284 283 284 285 290 289 279 276 275 276 273 267 268 271 276 270 272 273 273 274 275 280 282 285 288 292 295 299 304 304 304 301 295 295
220 224 227 224 221 218 211 205 204 210 219 231 238 240 238 238 237 237 237 239 242 241 242 242 241 241 244 248 249 251 254 262 254 265 275 278 282 289 275 276 276 271 268 263 261 260 261 262 262 271 284 286 286 286 290 289 294 282 284 290 290 284 278 275 270 269 267 265 265 269 273 274 276 280 283 286 289 292 296 304 309 306 302 299 294
213 217 222 224 226 228 223 212 210 212 211 215 228 237 242 244 243 240 240 241 242 243 245 247 248 247 248 250 252 254 257 258 270 264 274 282 285 290 296 283 283 273 269 267 266 263 261 262 263 272 280 284 284 287 289 295 287 285 295 292 292 293 280 271 273 272 270 266 265 266 270 274 276 280 284 286 288 291 296 299 301 304 300 294 292
219 223 225 223 225 229 226 219 214 215 217 219 217 220 231 240 241 241 241 242 241 242 242 247 250 250 251 253 254 255 257 259 266 279 275 285 286 294 297 296 286 272 270 264 264 261 261 262 263 274 279 281 284 286 289 290 287 295 294 292 292 283 274 274 274 275 273 268 267 267 270 274 276 277 282 286 289 293 294 291 291 292 292 292 295
224 231 237 231 228 232 232 223 217 221 223 224 224 226 223 225 231 236 239 240 242 242 243 246 249 249 250 251 252 254 257 259 260 271 286 285 291 295 299 300 294 288 273 262 262 262 265 271 272 276 278 281 285 284 281 285 292 291 294 295 285 274 277 277 278 277 279 279 275 273 274 277 280 283 282 283 284 281 283 282 284 286 288 290 291
nan nan nan nan 230 230 229 227 224 224 225 229 233 235 234 231 228 228 232 237 241 244 246 249 249 249 248 249 251 253 255 256 259 262 269 279 282 293 298 297 297 295 292 275 277 277 273 272 273 272 272 272 270 269 274 279 288 291 288 286 282 283 282 281 281 282 284 282 280 279 279 276 277 279 281 281 283 285 284 282 286 287 288 287 285
nan nan nan nan nan nan 225 225 224 222 222 225 230 233 234 232 229 225 224 228 241 246 249 252 250 249 248 247 247 249 252 255 258 261 266 268 269 271 275 276 284 284 276 268 265 262 262 260 261 268 269 279 281 279 278 279 281 282 285 287 289 290 291 291 290 290 289 284 279 274 273 273 273 276 280 283 287 288 287 286 286 287 284 283 283
nan nan nan nan nan nan nan 225 226 227 227 228 229 233 240 245 239 229 232 242 249 249 250 254 254 252 249 247 246 248 251 254 260 265 267 266 265 266 268 270 272 273 274 272 271 270 266 264 265 265 267 269 271 272 277 280 284 285 288 292 296 297 300 302 297 289 283 278 273 270 267 270 274 279 280 282 285 284 283 284 284 281 279 279 277
nan nan nan nan nan nan nan 231 232 234 234 233 234 238 243 250 254 252 253 253 253 250 251 252 257 256 253 251 254 253 254 257 261 268 268 273 272 267 268 270 271 273 282 286 273 269 269 271 272 272 272 274 274 275 277 280 282 286 291 294 296 297 296 296 296 291 286 279 277 274 272 273 274 276 278 279 279 278 279 280 279 279 277 279 282
nan nan nan nan nan nan nan 231 232 234 234 232 231 234 241 246 243 244 245 253 258 254 250 247 254 257 256 255 259 261 261 261 263 271 274 278 282 284 281 282 282 279 278 280 276 272 275 279 281 281 280 279 281 281 281 281 283 287 292 295 295 294 293 291 289 287 283 281 277 274 274 275 277 278 279 279 277 278 280 283 281 278 279 281 283
nan nan nan nan nan nan nan nan 228 232 234 232 231 230 229 232 236 238 239 241 248 248 245 240 240 250 255 249 253 259 249 240 245 262 272 277 280 283 284 286 286 282 274 271 270 274 275 279 282 284 285 286 288 289 288 288 288 292 291 292 293 293 291 289 289 287 284 281 277 274 273 277 281 282 281 280 278 276 276 272 271 278 283 287 295
nan nan nan nan nan nan nan 225 224 227 231 232 229 226 226 225 223 231 239 237 232 238 243 243 243 249 253 255 253 251 252 251 252 265 274 279 281 285 285 284 282 281 286 285 276 275 275 277 280 284 286 288 291 294 291 291 293 294 291 288 289 288 289 290 290 288 285 281 276 274 278 284 286 283 280 277 276 283 289 286 284 279 273 271 284
nan nan nan nan nan nan nan 223 224 227 229 229 225 223 222 222 222 221 228 238 242 242 241 243 246 249 253 251 255 257 256 258 262 266 269 275 280 282 283 280 276 279 278 277 279 278 278 278 280 284 287 291 291 291 293 294 292 291 288 287 285 288 292 291 284 282 282 279 276 278 283 285 285 281 279 279 283 289 291 291 283 275 272 271 276
nan nan nan nan nan nan nan 225 225 225 226 225 223 221 218 218 218 221 224 229 232 233 236 240 242 244 246 252 254 252 247 246 251 262 267 267 271 271 267 261 270 281 286 283 281 281 281 282 284 286 289 292 291 293 293 293 292 290 286 285 288 289 287 282 282 282 277 276 277 281 284 285 284 281 280 283 285 285 287 289 292 291 286 283 286
nan nan nan nan nan nan nan nan nan nan 224 222 219 219 219 217 217 220 223 226 232 237 237 236 239 247 246 248 253 255 254 254 252 255 263 266 264 264 264 262 263 265 266 269 277 279 280 282 284 289 291 292 293 294 296 295 292 290 289 289 287 284 282 280 280 277 276 276 279 283 286 286 285 282 280 281 283 284 282 284 290 296 295 289 288
nan nan nan nan nan nan nan nan nan nan nan 224 222 222 219 217 216 219 222 225 228 231 230 234 234 240 247 244 247 254 259 260 261 261 260 264 268 272 264 263 265 268 274 278 278 279 279 282 286 288 288 289 290 293 294 293 293 293 292 289 286 284 282 279 275 274 276 278 282 286 288 288 284 280 280 282 286 281 280 282 287 288 291 292 293
nan nan nan nan nan nan nan nan nan nan nan nan 228 224 222 221 222 224 225 226 227 227 228 230 234 233 237 238 243 247 253 256 256 257 260 267 275 272 267 267 268 270 271 272 275 276 277 279 283 285 286 288 291 293 292 291 291 290 288 287 283 281 281 278 275 274 275 277 280 284 290 289 284 279 280 279 276 269 269 276 283 284 289 296 292
nan nan nan nan nan nan nan nan nan nan nan nan nan 232 228 225 225 227 228 229 229 229 229 231 236 236 237 237 252 252 253 255 258 255 256 260 265 263 265 266 269 271 274 273 277 278 280 282 283 285 286 288 291 291 290 289 288 287 285 282 280 280 280 278 278 275 274 275 279 283 285 285 282 278 274 270 266 264 266 272 278 285 284 282 287
nan nan nan nan nan nan nan nan nan nan nan nan nan nan 230 228 228 228 229 231 231 232 233 234 236 238 238 243 248 252 255 256 259 261 262 263 264 264 266 267 270 271 273 274 276 278 280 283 284 284 285 288 291 292 290 286 284 282 280 278 279 280 280 276 273 271 271 274 278 281 282 282 279 274 269 260 255 261 267 268 271 276 286 291 286
nan nan nan nan nan nan nan 230 230 nan nan nan nan nan nan 228 229 230 231 232 233 236 237 239 239 239 239 246 250 254 256 258 259 260 263 265 266 268 270 271 273 273 272 272 275 278 280 281 282 280 284 289 291 291 289 285 281 278 276 278 280 281 279 274 270 269 268 270 275 279 280 279 273 265 260 262 262 262 266 268 273 284 293 289 283
nan nan nan nan 232 232 232 234 237 236 232 nan nan nan nan 226 229 231 233 235 237 239 241 240 241 240 241 247 255 260 258 258 259 261 265 268 268 269 269 270 270 272 272 274 275 276 278 278 279 281 283 285 287 287 286 284 281 278 277 279 279 278 274 271 270 269 269 272 276 278 275 272 272 271 269 265 257 258 262 268 277 285 287 284 280
nan nan nan nan nan nan 236 237 240 238 234 230 230 nan 228 228 230 232 235 238 239 241 242 242 242 242 244 252 261 264 259 258 261 264 264 264 265 266 264 263 263 266 268 271 273 276 277 277 275 273 275 276 277 280 282 283 283 282 281 279 279 276 272 270 269 270 273 275 278 278 273 268 268 271 270 267 270 271 267 265 269 276 279 278 276
nan nan nan nan nan nan nan 240 240 240 235 232 233 233 230 228 229 233 237 240 241 242 243 244 245 248 249 252 261 264 260 260 260 262 262 261 260 261 262 263 263 263 264 265 264 267 270 269 267 266 267 267 267 267 269 274 281 285 279 272 270 269 268 270 271 273 275 275 274 271 268 267 271 273 271 273 274 273 273 273 274 278 284 288 288
nan nan nan nan nan nan nan 241 241 239 236 232 233 235 234 231 230 231 234 239 242 244 244 244 248 251 252 254 257 258 258 256 255 258 259 260 261 262 264 265 265 265 265 265 265 265 266 267 267 267 266 266 267 267 267 268 272 276 274 271 266 263 264 267 271 276 276 273 270 266 264 265 270 270 267 267 272 275 273 276 279 282 281 278 279
nan nan nan nan nan nan nan 241 241 240 237 235 236 236 235 234 235 235 234 233 234 237 240 243 246 249 252 252 251 251 251 253 256 257 259 260 262 263 264 266 267 267 266 265 265 264 265 266 268 267 266 266 267 269 268 268 269 272 273 274 273 271 270 269 270 271 270 267 264 263 265 267 269 268 267 271 277 280 280 281 283 282 279 277 278
nan nan nan nan nan nan nan 241 240 240 238 237 237 237 236 235 237 237 236 236 238 240 241 243 244 245 246 248 249 250 252 253 255 258 259 260 261 262 262 265 268 269 268 266 264 264 265 267 268 268 268 269 271 271 270 269 270 272 273 273 271 270 268 266 265 263 260 260 263 266 267 266 267 270 273 276 278 280 281 281 279 278 278 277 278
nan nan nan nan nan nan nan nan 242 240 239 239 239 238 237 237 238 239 238 238 240 242 243 244 246 247 247 249 250 250 251 252 254 257 260 262 263 262 262 263 266 267 266 265 264 263 263 264 264 265 267 269 269 269 267 267 268 269 270 272 272 271 270 270 268 265 263 262 265 266 264 266 271 273 274 276 278 278 278 278 278 277 277 277 278
nan nan nan nan nan nan nan nan nan nan 240 240 240 238 237 238 240 241 240 239 241 243 245 246 247 248 249 250 251 251 252 253 254 255 256 257 258 260 261 262 262 262 264 265 264 262 261 261 261 262 264 265 266 265 265 264 265 266 268 268 270 272 270 269 268 268 266 264 261 261 264 268 272 274 274 275 276 277 277 276 275 273 273 277 nan
nan nan nan nan nan nan nan nan nan nan nan 240 240 240 238 239 242 243 243 242 242 244 246 248 249 250 251 251 251 251 251 252 253 254 255 256 256 257 259 262 262 262 262 263 264 263 260 259 260 261 262 262 262 262 263 262 262 261 261 262 264 267 269 270 270 272 273 268 262 263 267 270 270 271 272 271 272 273 273 271 nan nan nan nan nan
nan nan nan nan nan nan nan nan nan nan nan nan 241 240 239 240 242 244 245 245 245 245 246 248 251 253 253 252 251 251 251 251 253 254 255 255 256 257 258 260 262 263 263 262 261 261 261 261 262 262 261 260 259 259 260 259 258 256 257 259 259 262 267 269 269 271 273 270 263 259 262 266 267 267 269 272 273 274 nan nan nan nan nan nan nan
nan nan nan nan nan nan nan nan nan nan nan nan 242 242 241 242 243 245 247 247 247 247 248 250 252 254 255 255 253 251 251 251 253 253 254 255 256 258 259 259 260 260 260 260 259 259 260 261 262 263 262 261 259 257 257 256 254 255 256 nan nan nan nan nan nan nan nan 269 263 258 260 266 269 269 nan nan nan nan nan nan nan nan nan nan nan